Date,TemperatureHighF,TemperatureAvgF,TemperatureLowF,DewpointHighF,DewpointAvgF,DewpointLowF,HumidityHigh,HumidityAvg,HumidityLow,PressureMaxIn,PressureMinIn,WindSpeedMaxMPH,WindSpeedAvgMPH,GustSpeedMaxMPH,PrecipitationSumIn
2013-1-1,36.5,28.4,14.3,26.7,17.2,3.6,80,63,45,29.93,29.68,14,1,21,0.01
2013-1-2,28.8,15.5,5.4,18.5,6.4,-4.8,81,67,57,30.12,29.89,14,0,14,0.00
2013-1-3,25.7,11.7,-0.2,8.1,-0.7,-7.4,73,58,36,30.14,29.98,9,0,9,0.01
2013-1-4,37.6,26.7,15.5,24.5,19.1,8.1,89,73,57,29.98,29.78,12,1,12,0.03
2013-1-5,42.9,31.8,22.2,25.3,20.7,15.1,78,64,43,30.25,29.81,15,1,15,0.02
2013-1-6,44.2,30.8,21.6,31.3,24.3,15.4,91,77,56,30.22,29.92,7,0,7,0.01
2013-1-7,38.6,29.5,22.7,26.7,20.9,12.3,92,71,47,30.40,29.94,11,0,11,0.00
2013-1-8,45.2,31.7,21.9,28.9,23.7,17.3,88,73,50,30.36,30.25,12,0,12,0.00
2013-1-9,41.0,32.7,20.9,33.7,26.4,18.4,92,78,62,30.41,29.98,8,0,9,0.00
2013-1-10,46.7,38.8,29.4,30.1,26.0,23.0,77,60,46,30.54,30.00,19,2,20,0.00
2013-1-11,37.9,31.9,24.2,33.7,26.8,21.0,95,82,67,30.52,30.22,4,0,4,0.18
2013-1-12,39.7,36.9,33.5,39.0,36.1,32.5,98,97,95,30.22,30.12,3,0,3,0.03
2013-1-13,46.6,42.5,38.3,46.3,42.1,37.8,99,98,98,30.14,29.97,6,0,9,0.00
2013-1-14,62.9,46.9,37.2,53.3,40.4,27.3,99,80,50,30.25,29.83,12,1,13,0.00
2013-1-15,42.1,34.7,28.9,28.1,25.4,22.3,84,69,53,30.32,30.22,6,0,7,0.00
2013-1-16,32.4,30.5,28.2,30.9,28.4,23.3,96,92,78,30.25,29.81,3,0,3,0.02
2013-1-17,42.2,31.1,25.6,35.3,25.2,11.9,100,80,53,30.10,29.81,12,0,12,0.02
2013-1-18,26.7,19.1,11.8,13.4,3.0,-1.4,62,49,35,30.44,30.05,16,1,16,0.00
2013-1-19,45.6,34.2,18.8,30.1,21.3,6.9,77,59,46,30.36,29.84,18,1,21,0.00
2013-1-20,52.4,38.1,26.2,32.2,25.1,10.9,77,60,38,29.91,29.51,23,2,23,0.00
2013-1-21,27.1,22.5,15.5,19.1,10.2,2.3,91,61,44,30.08,29.78,13,0,17,0.00
2013-1-22,25.1,17.9,7.8,18.6,9.1,-0.2,100,70,42,30.07,29.76,13,0,13,0.00
2013-1-23,17.2,8.0,1.0,1.8,-7.1,-12.3,76,50,33,30.14,30.05,19,0,19,0.00
2013-1-24,18.2,8.4,-2.4,-3.2,-8.4,-12.8,62,47,34,30.23,30.06,23,3,23,0.00
2013-1-25,23.2,13.8,5.4,9.7,-3.7,-8.9,78,46,30,30.31,30.07,15,0,15,0.00
2013-1-26,24.7,15.1,7.2,10.2,2.5,-5.3,86,60,35,30.23,30.01,14,1,15,0.00
2013-1-27,31.5,17.8,7.8,5.4,2.1,-1.6,76,52,30,30.50,30.22,12,0,12,0.00
2013-1-28,28.5,21.5,14.8,21.7,11.6,0.9,93,67,43,30.48,30.06,5,0,5,0.00
2013-1-29,34.7,28.3,21.4,30.6,25.4,19.4,95,89,77,30.22,30.06,5,0,5,0.16
2013-1-30,56.9,42.8,31.8,55.2,41.8,30.5,99,96,93,30.17,29.44,16,1,16,0.20
2013-1-31,59.6,45.1,27.7,58.4,36.9,15.7,98,74,46,29.59,28.94,22,3,23,0.40
2013-2-1,35.4,26.4,20.0,17.8,11.6,4.2,70,54,37,30.10,29.59,16,1,18,0.00
2013-2-2,30.9,22.3,12.7,13.8,7.7,3.8,70,53,40,30.26,30.06,4,0,11,0.00
2013-2-3,26.1,22.9,17.3,22.5,19.3,14.0,100,86,64,30.08,29.75,6,0,7,0.01
2013-2-4,32.0,22.2,16.3,19.1,11.1,5.4,92,64,40,29.94,29.74,16,1,16,0.00
2013-2-5,30.1,22.8,15.1,19.1,11.5,5.3,83,62,47,30.06,29.94,5,0,5,0.00
2013-2-6,39.8,27.7,20.6,27.0,18.3,6.2,92,70,47,30.32,29.94,11,0,11,0.01
2013-2-7,31.1,21.3,11.0,6.7,2.6,-1.4,68,44,33,30.57,30.32,9,0,9,0.00
2013-2-8,22.7,19.6,15.8,18.5,14.4,2.5,100,82,41,30.52,29.73,31,2,31,0.00
2013-2-9,20.2,16.4,11.2,18.1,14.3,8.6,93,91,89,30.24,29.66,27,4,27,0.01
2013-2-10,34.3,21.6,9.6,28.8,16.1,6.8,92,80,60,30.42,30.24,11,0,11,0.01
2013-2-11,31.3,25.9,17.2,30.3,22.1,8.6,97,86,59,30.37,29.64,6,0,6,0.00
2013-2-12,44.2,35.5,29.6,33.9,30.0,27.0,97,81,57,29.88,29.61,16,1,16,0.15
2013-2-13,44.7,34.2,25.2,27.8,24.1,21.0,85,67,49,29.88,29.74,7,0,7,0.00
2013-2-14,46.1,34.3,24.2,25.6,23.0,19.5,83,65,43,30.01,29.72,9,0,9,0.00
2013-2-15,52.9,38.2,27.2,34.5,28.3,21.5,94,69,47,30.01,29.90,13,1,13,0.00
2013-2-16,38.5,33.1,27.2,31.7,26.0,17.0,95,76,59,29.98,29.76,12,1,12,0.09
2013-2-17,27.1,19.9,14.1,17.6,9.4,1.7,89,65,49,29.76,29.41,23,3,28,0.00
2013-2-18,32.2,21.1,11.8,6.0,2.6,-0.2,61,46,29,30.17,29.70,18,2,25,0.00
2013-2-19,44.1,33.1,17.9,39.0,22.0,4.1,97,65,39,30.19,29.59,10,0,11,0.30
2013-2-20,38.2,31.1,24.2,37.4,21.6,13.7,97,69,47,29.78,29.54,15,1,15,0.01
2013-2-21,33.5,25.5,21.3,16.4,14.1,10.8,75,62,47,30.24,29.77,20,2,21,0.00
2013-2-22,41.7,30.6,18.7,25.1,20.5,15.3,88,68,43,30.43,30.24,10,0,11,0.00
2013-2-23,36.6,32.8,28.7,31.1,28.1,23.2,95,83,74,30.36,29.96,9,0,9,0.00
2013-2-24,33.6,32.2,29.8,32.4,31.1,28.5,97,96,94,29.96,29.74,13,1,13,0.17
2013-2-25,38.7,32.9,29.0,34.0,30.8,27.9,96,92,81,30.26,29.92,5,0,5,0.30
2013-2-26,43.1,34.9,29.5,34.8,30.1,27.4,97,83,66,30.36,30.20,7,0,7,0.22
2013-2-27,39.3,35.5,33.2,38.3,33.9,29.3,100,94,83,30.20,29.61,24,2,24,1.22
2013-2-28,46.4,37.4,32.0,37.2,34.1,31.2,97,88,70,29.66,29.55,7,0,7,0.06
2013-3-1,39.6,35.6,30.1,33.8,30.0,27.7,96,80,68,29.70,29.55,11,1,11,0.00
2013-3-2,42.7,35.3,27.5,32.2,27.7,24.1,88,74,63,29.70,29.64,10,1,10,0.00
2013-3-3,40.4,33.7,29.1,32.5,27.9,25.4,92,79,69,29.67,29.58,10,1,10,0.02
2013-3-4,40.1,32.3,28.7,28.5,24.7,22.1,88,74,55,29.78,29.61,22,2,22,0.00
2013-3-5,45.6,35.6,28.3,32.4,27.5,22.0,92,73,55,30.10,29.78,12,1,12,0.00
2013-3-6,36.9,34.1,30.4,34.4,31.9,28.5,96,91,75,30.17,30.08,18,3,18,0.12
2013-3-7,33.6,31.0,29.4,30.5,28.5,26.1,95,91,81,30.15,30.04,18,2,18,0.14
2013-3-8,40.5,32.8,28.7,31.2,27.8,23.1,96,83,58,30.20,30.00,15,1,15,0.12
2013-3-9,54.4,36.7,25.4,30.1,25.0,20.5,92,66,30,30.39,30.19,7,0,7,0.51
2013-3-10,49.0,34.7,21.6,33.6,28.4,20.0,100,79,53,30.45,30.32,7,0,7,0.00
2013-3-11,50.7,40.7,31.2,39.0,33.8,29.3,94,78,53,30.34,30.16,9,1,9,0.00
2013-3-12,53.2,47.0,39.5,51.5,45.8,37.7,98,96,86,30.17,29.72,17,1,17,0.44
2013-3-13,52.9,42.2,30.4,49.8,31.6,20.4,98,69,38,29.80,29.72,13,1,13,0.00
2013-3-14,37.0,29.6,20.7,23.7,16.9,7.9,79,60,43,29.85,29.72,16,1,19,0.00
2013-3-15,42.2,28.3,16.7,28.0,14.4,5.2,83,57,29,29.89,29.65,21,1,21,0.00
2013-3-16,39.7,31.6,23.8,26.3,15.9,12.0,79,53,36,29.91,29.68,12,0,14,0.00
2013-3-17,38.7,28.9,18.6,15.8,11.9,7.5,80,51,29,30.21,29.91,15,1,19,0.00
2013-3-18,39.2,29.6,12.9,25.8,10.8,1.8,90,48,26,30.49,30.27,5,0,5,0.00
2013-3-19,33.0,30.1,24.7,31.7,28.8,23.0,96,95,91,30.27,29.68,22,1,22,0.08
2013-3-20,38.9,29.3,22.1,27.5,22.9,19.7,95,78,55,29.83,29.72,11,1,15,0.57
2013-3-21,41.4,29.4,18.5,25.7,20.0,15.6,92,71,41,29.83,29.62,6,0,6,0.01
2013-3-22,42.3,32.1,23.5,24.4,21.1,18.1,92,65,41,29.75,29.63,12,0,12,0.00
2013-3-23,44.9,33.5,22.7,24.1,21.0,17.6,84,62,41,29.80,29.65,18,1,18,0.00
2013-3-24,48.6,37.9,30.2,27.5,24.8,21.6,75,60,42,29.84,29.75,19,1,19,0.00
2013-3-25,45.0,35.4,26.6,33.9,27.9,22.2,84,74,62,29.80,29.56,16,1,16,0.00
2013-3-26,52.8,40.1,32.2,29.8,25.6,21.3,81,58,33,29.80,29.58,11,1,12,0.00
2013-3-27,55.7,41.2,27.5,33.0,26.3,20.8,81,57,35,29.90,29.76,16,1,16,0.00
2013-3-28,49.9,41.3,33.8,36.0,33.1,30.7,94,74,49,30.04,29.89,10,0,12,0.02
2013-3-29,58.4,43.9,33.0,38.5,32.8,29.3,88,67,40,30.07,29.99,10,0,10,0.00
2013-3-30,59.1,45.1,33.1,33.2,25.9,16.5,87,52,24,30.12,30.02,12,1,15,0.00
2013-3-31,61.7,43.8,25.3,40.2,27.2,19.8,88,56,26,30.14,29.77,14,1,15,0.05
2013-4-1,61.7,45.2,32.5,45.7,35.8,13.3,100,72,39,29.80,29.51,19,1,19,0.36
2013-4-2,40.9,33.0,24.9,18.7,14.5,11.7,64,47,33,29.94,29.80,18,1,19,0.00
2013-4-3,48.2,36.2,26.8,16.6,13.8,9.6,60,41,22,30.17,29.92,20,1,20,0.00
2013-4-4,57.5,42.0,26.3,24.2,18.5,15.3,65,41,22,30.31,30.03,11,1,12,0.00
2013-4-5,63.9,46.1,35.9,31.0,27.2,22.7,76,51,23,30.03,29.66,17,2,17,0.00
2013-4-6,47.0,36.6,28.6,24.3,12.4,6.3,62,38,21,30.36,29.90,19,2,23,0.00
2013-4-7,57.6,41.2,24.0,38.5,25.2,6.8,81,55,28,30.36,30.00,19,2,19,0.00
2013-4-8,66.7,51.3,39.8,42.6,38.5,34.2,96,66,34,30.11,29.96,12,1,12,0.00
2013-4-9,71.3,55.2,44.0,52.3,44.2,39.1,93,69,41,30.09,29.87,12,1,17,0.02
2013-4-10,60.7,50.6,44.2,50.9,46.4,41.7,96,86,67,30.03,29.88,9,0,9,0.63
2013-4-11,52.7,45.3,39.2,47.1,38.2,26.9,97,78,48,30.17,29.85,9,1,11,0.08
2013-4-12,40.3,35.8,33.8,35.0,32.4,27.0,96,88,59,30.21,29.84,16,1,16,0.57
2013-4-13,53.6,42.3,33.8,41.3,36.3,32.7,100,81,55,29.95,29.80,10,1,11,0.10
2013-4-14,56.7,45.3,34.4,38.7,33.6,28.4,91,66,40,30.24,29.93,14,1,14,0.00
2013-4-15,60.0,44.7,30.2,37.9,33.1,27.4,91,67,38,30.41,30.24,13,1,14,0.00
2013-4-16,68.9,51.7,37.3,51.7,42.5,34.1,91,72,45,30.41,30.06,18,2,18,0.01
2013-4-17,67.5,56.8,45.0,52.7,37.7,28.3,86,52,28,30.36,30.06,18,2,18,0.00
2013-4-18,64.4,51.5,36.1,43.5,33.5,28.3,78,52,36,30.46,30.16,18,1,18,0.00
2013-4-19,75.3,62.6,50.8,62.5,56.4,43.5,97,81,59,30.17,29.63,21,3,21,0.00
2013-4-20,67.1,52.1,40.9,63.0,40.5,23.5,96,68,39,30.24,29.60,17,2,17,0.53
2013-4-21,54.2,42.0,29.6,28.8,23.3,16.5,77,49,27,30.70,30.24,17,1,18,0.00
2013-4-22,53.0,41.4,29.5,34.1,29.6,24.4,89,65,35,30.79,30.63,19,1,20,0.00
2013-4-23,40.1,37.7,32.6,39.2,35.5,29.3,97,92,83,30.63,30.16,13,1,13,0.03
2013-4-24,76.9,57.2,40.0,54.7,45.1,39.2,97,69,30,30.16,29.78,16,2,16,0.00
2013-4-25,65.3,54.8,43.6,51.3,37.0,25.6,94,55,28,30.29,29.82,14,1,14,0.04
2013-4-26,62.9,49.7,34.9,39.6,33.8,26.7,80,56,38,30.44,30.29,13,1,13,0.00
2013-4-27,66.8,51.7,35.2,42.9,37.0,32.9,94,61,33,30.44,30.30,10,0,10,0.00
2013-4-28,72.0,55.2,38.2,43.3,38.3,32.3,91,57,30,30.36,30.22,12,1,12,0.00
2013-4-29,71.8,58.0,44.7,49.5,39.0,30.7,81,51,33,30.28,30.18,12,1,12,0.00
2013-4-30,72.5,58.9,47.4,38.4,31.4,25.3,53,37,22,30.38,30.26,12,1,12,0.00
2013-5-1,74.0,56.3,36.9,42.4,35.2,30.9,83,48,27,30.49,30.38,15,1,15,0.00
2013-5-2,80.8,55.8,41.7,48.1,39.6,32.1,83,58,26,30.51,30.35,17,1,20,0.00
2013-5-3,63.7,50.9,38.8,47.1,41.3,35.2,93,71,51,30.55,30.40,14,1,14,0.00
2013-5-4,64.8,51.3,39.0,47.9,39.3,29.1,96,68,29,30.40,30.31,15,1,17,0.00
2013-5-5,67.5,49.5,33.2,44.3,38.4,31.7,96,69,40,30.36,30.26,11,1,11,0.00
2013-5-6,75.2,53.9,35.4,49.4,42.7,34.1,97,71,30,30.31,30.15,9,0,10,0.00
2013-5-7,82.0,64.5,46.0,58.5,51.8,44.4,96,68,33,30.19,30.08,11,1,13,0.00
2013-5-8,75.5,63.8,54.4,63.6,58.2,53.0,96,83,60,30.22,30.06,13,1,13,0.01
2013-5-9,67.6,59.1,55.3,61.7,57.5,54.4,98,95,77,30.06,29.90,6,0,6,0.35
2013-5-10,81.3,65.0,53.0,61.9,57.1,52.5,99,79,44,29.97,29.89,10,0,10,0.00
2013-5-11,68.7,62.9,58.0,62.7,59.1,54.7,97,88,79,29.91,29.70,15,1,19,0.11
2013-5-12,72.0,59.7,45.7,59.9,50.8,30.4,98,75,41,29.81,29.57,15,0,15,0.05
2013-5-13,59.9,48.5,37.9,36.5,32.0,28.4,79,54,36,30.04,29.81,13,0,13,0.00
2013-5-14,60.7,47.5,34.8,37.5,32.9,28.8,88,60,35,30.07,29.99,17,0,17,0.00
2013-5-15,69.0,51.8,34.5,51.7,40.0,30.8,94,68,31,30.07,29.68,13,1,14,0.00
2013-5-16,82.3,65.7,47.4,50.5,44.3,34.4,96,54,25,29.83,29.63,18,1,18,0.00
2013-5-17,69.0,57.4,48.4,47.2,41.8,37.9,78,57,36,30.24,29.83,15,1,15,0.00
2013-5-18,74.8,58.5,41.4,49.1,43.4,38.2,93,61,29,30.33,30.23,9,0,9,0.00
2013-5-19,73.3,56.6,48.2,56.7,51.3,46.6,97,84,51,30.36,30.22,9,0,9,0.20
2013-5-20,82.0,66.7,54.6,67.5,60.6,53.8,98,83,56,30.22,29.93,10,0,10,0.06
2013-5-21,76.0,59.9,49.1,68.2,57.0,47.8,98,91,72,30.04,29.89,13,1,13,0.02
2013-5-22,64.6,56.1,49.0,60.5,54.1,47.9,100,93,84,30.11,29.91,9,0,10,1.33
2013-5-23,75.3,61.5,52.1,71.2,60.2,51.2,99,96,82,29.95,29.79,12,0,12,0.54
2013-5-24,71.7,61.1,47.0,67.4,59.1,46.1,99,93,76,29.85,29.64,12,1,13,0.95
2013-5-25,49.2,45.4,38.9,48.4,44.4,36.8,100,96,90,29.85,29.74,14,1,14,0.29
2013-5-26,56.9,46.9,38.1,44.5,39.9,36.6,96,78,57,30.11,29.72,18,1,18,0.05
2013-5-27,72.5,56.1,38.2,47.2,40.8,36.9,97,62,32,30.19,30.09,15,1,15,0.00
2013-5-28,75.2,59.4,41.5,50.8,45.5,39.3,95,64,33,30.25,30.17,9,0,9,0.00
2013-5-29,67.9,61.0,54.3,64.2,59.0,50.5,98,93,85,30.19,29.99,5,0,5,0.43
2013-5-30,88.9,74.3,60.5,71.2,65.2,59.9,99,76,44,30.08,30.00,9,0,9,0.00
2013-5-31,94.8,79.7,63.8,74.1,67.2,62.0,97,69,40,30.09,29.92,7,0,7,0.00
2013-6-1,94.4,80.2,67.2,71.8,67.3,61.8,90,69,36,29.97,29.84,7,0,9,0.03
2013-6-2,91.8,78.1,67.9,74.6,68.6,64.6,96,75,43,29.87,29.69,14,1,14,0.06
2013-6-3,79.2,68.0,54.7,70.3,62.7,47.8,98,85,58,29.85,29.75,5,0,6,0.27
2013-6-4,70.8,60.4,49.7,50.0,46.5,40.8,80,61,44,30.11,29.84,15,1,15,0.00
2013-6-5,74.3,62.0,47.3,54.0,49.4,44.4,95,66,40,30.20,30.09,9,0,9,0.00
2013-6-6,74.8,63.2,52.4,58.5,53.8,50.0,93,73,47,30.20,30.11,10,0,10,0.01
2013-6-7,57.5,53.7,51.1,54.7,52.5,50.2,97,95,89,30.12,29.85,13,1,14,1.54
2013-6-8,78.2,62.0,51.3,66.8,57.8,50.4,99,87,63,30.01,29.66,12,1,12,0.79
2013-6-9,79.8,67.1,54.9,61.5,57.7,54.1,98,74,47,30.17,30.01,11,0,11,0.00
2013-6-10,70.3,61.9,55.4,61.4,57.1,53.2,97,85,69,30.22,30.03,7,0,7,0.61
2013-6-11,60.8,56.5,53.7,57.5,55.2,52.9,97,95,86,30.03,29.60,13,1,13,0.62
2013-6-12,69.7,61.3,54.8,59.0,55.5,52.2,98,82,62,29.83,29.57,13,1,17,0.03
2013-6-13,67.2,57.1,50.2,59.9,54.1,48.8,97,90,71,29.83,29.72,3,0,3,0.42
2013-6-14,75.8,61.0,52.2,60.6,54.7,51.1,98,82,48,29.79,29.67,11,0,11,0.53
2013-6-15,79.0,66.1,52.8,54.2,50.5,45.2,92,61,32,29.94,29.79,13,0,13,0.00
2013-6-16,76.2,65.0,53.7,62.7,56.1,47.3,87,74,50,29.94,29.71,9,0,9,0.00
2013-6-17,85.8,68.4,56.8,67.0,61.2,55.3,97,80,46,29.91,29.77,12,0,13,0.10
2013-6-18,71.1,61.2,56.4,63.4,59.1,55.5,99,93,73,29.97,29.89,6,0,6,0.59
2013-6-19,75.2,63.7,54.0,59.1,53.1,46.0,98,72,41,30.16,29.93,8,0,8,0.00
2013-6-20,80.5,65.7,48.9,58.9,53.0,46.5,94,66,40,30.27,30.16,5,0,7,0.00
2013-6-21,84.8,71.0,56.2,66.2,58.2,53.4,93,67,37,30.25,30.19,9,0,10,0.00
2013-6-22,85.8,73.0,61.4,70.6,63.8,59.4,94,74,53,30.22,30.10,6,0,7,0.00
2013-6-23,91.2,76.7,64.4,77.0,67.8,59.9,88,75,56,30.15,29.97,8,0,9,0.01
2013-6-24,93.5,79.1,68.2,76.2,70.6,67.2,97,78,47,30.01,29.86,11,0,15,0.38
2013-6-25,90.5,77.1,65.6,77.2,70.6,65.0,99,82,55,29.92,29.72,6,0,6,0.43
2013-6-26,81.2,71.6,65.2,74.4,69.4,64.2,99,93,72,29.86,29.72,7,0,7,0.26
2013-6-27,68.2,63.9,60.2,66.5,62.9,59.6,99,97,93,29.88,29.77,7,0,7,0.09
2013-6-28,77.5,65.8,56.4,74.9,64.8,55.8,100,97,86,29.77,29.48,13,1,13,0.46
2013-6-29,84.3,74.6,68.6,74.1,69.8,67.0,99,86,64,29.71,29.51,11,1,11,0.01
2013-6-30,86.7,75.8,65.7,75.7,70.2,65.1,99,84,61,29.93,29.71,10,0,10,0.00
2013-7-1,80.3,72.7,69.8,74.4,70.9,68.6,99,94,81,30.07,29.92,10,0,10,1.58
2013-7-2,82.4,69.7,59.5,77.1,68.3,58.9,99,95,77,30.22,30.07,11,0,12,0.15
2013-7-3,87.6,72.8,59.5,77.6,69.1,58.9,100,89,69,30.22,30.12,6,0,6,0.00
2013-7-4,93.0,81.6,70.7,79.4,74.4,70.1,99,80,58,30.20,30.08,6,0,6,0.00
2013-7-5,94.3,83.2,72.8,79.9,75.1,71.6,97,78,58,30.15,30.01,6,0,6,0.00
2013-7-6,89.0,80.4,71.2,76.6,71.7,63.6,97,76,58,30.07,29.98,7,0,10,0.00
2013-7-7,91.9,78.4,67.1,78.4,70.2,61.5,91,77,57,30.02,29.90,4,0,4,0.00
2013-7-8,84.5,74.2,65.4,76.5,70.8,64.2,97,89,73,30.08,29.91,9,0,10,0.86
2013-7-9,72.3,67.6,63.5,68.7,65.5,62.4,98,93,86,30.12,30.05,7,0,7,0.00
2013-7-10,82.5,71.1,64.7,77.0,69.7,63.6,99,96,80,30.08,29.79,7,0,7,0.57
2013-7-11,84.1,73.9,68.3,77.0,72.2,67.0,100,95,76,29.94,29.76,6,0,7,0.21
2013-7-12,68.2,65.8,64.0,67.1,64.9,63.1,97,97,96,30.03,29.94,3,0,3,0.00
2013-7-13,80.8,74.8,69.1,72.5,69.7,66.9,97,85,72,30.32,30.28,5,0,5,0.02
2013-7-14,89.2,78.0,68.0,76.6,72.5,67.4,99,84,59,30.30,30.20,7,0,7,0.00
2013-7-15,91.6,79.9,68.9,77.8,72.2,68.0,99,79,56,30.21,30.09,6,0,6,0.00
2013-7-16,92.3,79.6,67.3,75.4,70.4,64.9,94,75,48,30.17,30.11,13,0,13,0.00
2013-7-17,95.0,81.8,69.1,77.4,72.6,67.1,97,76,50,30.18,29.97,3,0,4,0.00
2013-7-18,93.7,81.3,73.1,78.4,73.3,69.3,93,78,55,30.01,29.93,7,0,7,0.00
2013-7-19,96.0,83.6,70.9,79.9,75.0,70.0,98,77,52,29.94,29.70,10,1,10,0.00
2013-7-20,91.4,80.6,69.7,78.8,71.4,64.3,87,74,60,29.81,29.65,5,0,8,0.00
2013-7-21,81.8,72.5,63.7,71.2,65.8,61.6,95,80,60,29.99,29.81,5,0,6,0.00
2013-7-22,82.5,71.5,65.7,73.3,67.6,63.6,98,88,68,30.03,29.90,7,0,10,0.00
2013-7-23,76.9,70.3,66.9,75.1,69.2,65.6,99,96,90,29.90,29.54,6,0,6,0.94
2013-7-24,84.3,73.8,61.0,74.8,67.6,51.3,99,82,64,29.98,29.58,19,0,19,0.00
2013-7-25,63.8,59.8,55.7,58.2,54.0,48.8,93,82,71,30.12,29.98,9,0,9,0.04
2013-7-26,72.1,63.1,58.6,70.1,61.1,56.6,97,93,88,30.12,29.95,12,0,13,0.31
2013-7-27,84.5,71.2,57.0,69.5,63.9,56.4,99,80,53,30.06,29.99,5,0,5,0.00
2013-7-28,80.7,70.0,63.1,72.7,66.5,61.8,97,89,70,30.03,29.97,10,0,10,0.11
2013-7-29,85.7,71.8,65.3,74.3,68.4,64.4,99,90,63,30.04,29.93,12,0,12,0.23
2013-7-30,81.2,70.3,57.9,66.3,61.5,56.8,98,76,48,30.10,30.03,8,0,9,0.00
2013-7-31,81.6,69.9,59.3,67.4,61.6,57.7,96,77,48,30.14,30.04,5,0,5,0.00
2013-8-1,82.3,69.0,60.0,68.6,63.9,59.2,98,85,58,30.05,29.87,7,0,7,0.06
2013-8-2,83.3,70.3,63.4,71.2,64.1,58.4,99,82,55,29.87,29.78,6,0,7,0.67
2013-8-3,80.4,69.1,60.5,67.7,61.5,56.4,96,78,54,29.86,29.76,7,0,7,0.00
2013-8-4,79.0,65.7,55.5,64.6,58.6,53.5,94,79,53,29.90,29.78,15,0,15,0.07
2013-8-5,75.8,63.0,52.9,54.8,50.2,43.3,95,66,35,30.06,29.89,13,1,15,0.00
2013-8-6,79.0,63.9,49.0,60.9,53.4,47.3,96,71,41,30.16,30.06,4,0,5,0.00
2013-8-7,81.2,66.8,53.7,64.1,57.3,52.3,97,74,40,30.20,30.10,9,0,9,0.00
2013-8-8,82.3,72.2,64.2,73.6,66.9,58.0,93,84,71,30.11,30.00,6,0,6,0.00
2013-8-9,73.9,71.2,69.5,73.6,70.3,68.3,99,97,93,30.02,29.74,10,0,10,1.15
2013-8-10,82.8,71.4,60.6,69.5,63.3,54.3,99,78,45,30.02,29.79,11,0,11,0.01
2013-8-11,80.2,66.3,52.4,62.0,56.8,50.8,97,74,46,30.09,30.00,7,0,7,0.00
2013-8-12,81.1,68.4,56.8,65.3,59.8,54.8,95,76,47,30.03,29.92,9,0,9,0.00
2013-8-13,73.8,67.3,63.4,69.8,64.6,60.5,96,91,81,29.92,29.68,5,0,5,0.04
2013-8-14,74.0,65.3,56.9,63.3,56.5,51.1,98,75,52,29.96,29.67,11,1,17,0.00
2013-8-15,78.7,63.6,49.9,59.3,53.6,48.5,97,72,46,30.11,29.96,7,0,8,0.00
2013-8-16,79.3,65.1,51.7,62.1,55.9,50.0,95,74,47,30.20,30.10,6,0,7,0.00
2013-8-17,81.5,66.3,53.1,66.3,58.9,51.7,97,79,47,30.28,30.19,4,0,4,0.00
2013-8-18,80.9,67.7,56.5,67.7,61.7,55.4,97,82,57,30.28,30.08,4,0,4,0.00
2013-8-19,82.0,69.6,58.7,67.6,62.3,57.8,98,80,55,30.08,29.95,9,0,9,0.00
2013-8-20,86.8,72.5,60.0,69.1,63.6,58.3,95,76,48,30.09,29.98,7,0,7,0.00
2013-8-21,89.2,73.8,60.9,71.5,65.0,59.6,97,76,49,30.15,30.02,5,0,5,0.00
2013-8-22,88.4,75.2,62.7,72.8,67.6,61.2,96,79,52,30.03,29.82,11,0,11,0.00
2013-8-23,80.0,70.8,59.0,68.2,59.5,51.3,94,70,46,30.15,29.82,13,1,13,0.00
2013-8-24,78.2,64.0,50.9,55.2,51.8,48.3,93,68,38,30.34,30.14,9,0,9,0.00
2013-8-25,84.3,66.7,50.2,61.3,55.2,48.9,97,70,37,30.38,30.18,6,0,6,0.00
2013-8-26,81.7,70.4,61.3,69.8,64.2,56.3,97,81,64,30.18,29.86,6,0,6,0.05
2013-8-27,86.5,74.3,66.4,71.4,67.5,63.8,96,81,55,29.91,29.83,10,0,10,0.00
2013-8-28,86.3,73.0,63.0,72.8,66.5,62.1,98,82,57,29.99,29.85,11,0,13,0.00
2013-8-29,66.6,63.8,60.1,64.4,61.6,58.4,97,93,88,30.09,29.95,13,1,13,0.01
2013-8-30,85.2,69.7,56.5,70.7,63.6,55.7,98,83,57,30.03,29.81,4,0,4,0.00
2013-8-31,80.2,72.3,67.2,76.3,70.4,65.4,98,94,85,29.84,29.77,4,0,4,0.18
2013-9-1,85.5,74.9,69.1,76.2,71.7,68.4,99,90,68,29.88,29.78,6,0,6,0.15
2013-9-2,78.7,73.6,71.2,76.3,72.1,70.3,98,95,89,29.87,29.71,5,0,6,0.15
2013-9-3,80.5,70.8,59.2,72.4,67.0,56.6,99,88,69,29.81,29.69,4,0,4,0.00
2013-9-4,82.8,67.9,55.0,63.7,58.1,53.9,98,74,45,29.91,29.80,7,0,7,0.00
2013-9-5,71.0,62.0,50.1,60.0,51.8,42.2,94,71,41,30.17,29.85,13,1,13,0.00
2013-9-6,71.0,55.7,42.3,48.4,44.3,39.9,93,69,38,30.26,30.09,9,0,9,0.00
2013-9-7,83.2,63.4,48.0,59.3,52.5,45.0,94,71,34,30.09,29.85,5,0,5,0.00
2013-9-8,72.0,62.5,48.1,62.7,51.9,41.3,87,70,45,30.11,29.75,16,1,16,0.00
2013-9-9,70.7,55.9,41.5,51.1,45.2,39.3,95,70,42,30.25,30.10,5,0,5,0.00
2013-9-10,74.9,64.5,53.4,71.8,62.0,49.0,97,91,84,30.15,30.02,6,0,6,0.14
2013-9-11,96.7,80.0,68.0,79.2,72.3,67.4,99,80,50,30.06,29.93,10,0,14,0.02
2013-9-12,85.5,72.5,64.9,76.9,69.0,64.0,98,89,73,29.94,29.66,10,0,10,1.33
2013-9-13,76.7,66.4,57.3,70.0,63.2,53.2,99,90,72,29.77,29.57,11,0,12,0.07
2013-9-14,67.3,58.8,50.6,56.2,53.1,48.9,94,82,64,30.06,29.77,10,0,10,0.00
2013-9-15,72.8,57.3,45.0,55.5,50.1,43.9,98,80,44,30.17,30.04,6,0,7,0.00
2013-9-16,66.5,55.8,44.7,58.8,50.4,37.4,96,83,66,30.28,30.00,12,1,15,0.02
2013-9-17,64.3,49.3,35.8,45.7,40.5,34.0,96,74,47,30.45,30.28,10,0,11,0.00
2013-9-18,76.1,55.6,39.7,52.5,46.0,38.4,97,74,38,30.34,30.14,5,0,5,0.00
2013-9-19,80.0,60.6,45.4,60.0,52.4,44.0,97,77,40,30.14,30.04,5,0,5,0.00
2013-9-20,81.7,62.9,48.9,62.8,55.3,47.8,97,79,46,30.10,30.00,5,0,6,0.00
2013-9-21,76.3,63.0,51.9,65.3,58.8,51.1,98,87,65,30.03,29.72,14,1,14,0.00
2013-9-22,72.1,63.2,50.8,66.2,57.3,44.0,98,82,56,29.85,29.59,12,1,12,0.65
2013-9-23,61.2,50.6,42.9,46.9,42.7,39.3,91,75,56,30.02,29.84,15,1,15,0.00
2013-9-24,66.4,51.2,39.6,48.2,42.7,37.6,95,75,47,30.01,29.83,15,1,15,0.00
2013-9-25,69.3,54.2,42.4,54.5,48.0,40.8,96,81,58,30.00,29.89,9,0,9,0.00
2013-9-26,68.0,57.3,49.5,53.3,49.8,47.0,92,77,52,30.15,30.00,9,0,9,0.00
2013-9-27,66.6,57.6,51.0,56.3,52.4,49.6,95,83,65,30.28,30.14,7,0,7,0.00
2013-9-28,75.2,57.9,48.3,60.0,52.1,47.2,97,83,52,30.35,30.27,7,0,7,0.00
2013-9-29,69.5,53.6,42.5,56.9,48.3,41.4,98,85,49,30.28,30.14,4,0,5,0.00
2013-9-30,71.1,52.0,43.4,56.2,47.8,42.2,98,88,52,30.14,29.98,3,0,9,0.01
2013-10-1,77.3,59.4,44.5,59.0,52.1,43.7,98,80,47,29.99,29.86,7,0,9,0.00
2013-10-2,81.5,64.8,51.3,63.7,57.7,50.2,97,80,52,29.95,29.83,10,0,10,0.00
2013-10-3,79.4,62.7,51.0,57.4,52.3,48.7,95,72,36,30.10,29.95,5,0,5,0.00
2013-10-4,60.9,56.3,50.5,59.2,54.3,49.1,97,93,86,30.11,30.04,2,0,2,0.10
2013-10-5,66.8,60.1,55.3,59.0,56.2,53.5,98,87,73,30.14,30.07,5,0,5,0.00
2013-10-6,58.3,53.5,50.3,56.0,52.4,48.9,98,96,89,30.26,30.13,10,1,10,0.35
2013-10-7,76.1,62.7,54.1,70.4,61.1,53.5,100,95,77,30.16,29.80,14,1,14,0.29
2013-10-8,66.3,54.0,43.3,56.8,45.6,39.1,98,76,44,30.40,29.91,14,0,14,0.01
2013-10-9,63.7,48.3,37.1,49.4,42.6,35.8,96,82,54,30.51,30.39,6,0,6,0.00
2013-10-10,60.4,49.0,38.8,51.5,45.7,37.8,98,89,68,30.39,30.21,5,0,5,0.00
2013-10-11,73.0,55.8,45.3,54.3,46.8,35.8,98,76,29,30.20,30.12,7,0,7,0.00
2013-10-12,55.1,51.8,46.1,53.7,50.6,45.0,97,95,91,30.42,30.17,14,1,15,0.01
2013-10-13,58.4,49.2,41.5,51.9,45.9,40.2,98,89,73,30.48,30.40,10,0,10,0.01
2013-10-14,65.8,48.6,34.8,51.2,42.7,33.9,98,82,49,30.43,30.25,4,0,4,0.00
2013-10-15,64.5,55.8,50.9,54.6,51.0,46.8,96,84,67,30.28,30.19,6,0,7,0.00
2013-10-16,60.2,54.1,50.0,53.0,51.0,48.8,98,90,68,30.20,29.92,5,0,5,0.00
2013-10-17,76.0,59.4,47.9,61.2,51.8,46.7,99,79,44,29.93,29.71,7,0,7,0.00
2013-10-18,68.2,58.7,46.7,59.6,50.7,38.4,98,77,49,29.91,29.60,13,0,13,0.03
2013-10-19,69.3,53.6,39.6,49.1,42.9,37.2,93,69,42,29.98,29.75,6,0,7,0.00
2013-10-20,62.7,51.4,41.5,48.6,41.0,34.9,96,70,41,30.02,29.69,12,0,12,0.01
2013-10-21,68.9,50.9,36.9,46.1,39.8,33.9,91,68,41,30.13,29.99,7,0,7,0.00
2013-10-22,62.9,51.4,42.7,52.7,45.3,36.5,95,80,63,29.99,29.72,7,0,10,0.00
2013-10-23,51.2,43.4,34.1,37.8,35.1,31.8,92,74,53,29.81,29.60,3,0,3,0.00
2013-10-24,54.6,43.7,33.9,37.5,32.0,27.7,88,65,41,29.89,29.65,13,0,13,0.00
2013-10-25,48.5,38.9,31.1,36.4,29.7,25.6,95,71,47,30.16,29.89,11,0,11,0.00
2013-10-26,55.0,41.7,29.7,36.5,30.5,25.6,93,67,38,30.16,29.88,12,1,12,0.00
2013-10-27,54.7,45.8,35.1,38.2,34.0,29.0,81,64,45,30.07,29.80,9,0,12,0.00
2013-10-28,58.2,42.2,32.1,38.9,31.4,23.3,91,68,45,30.37,30.07,15,0,15,0.00
2013-10-29,49.9,35.1,24.3,27.9,22.6,19.0,87,63,34,30.48,30.37,6,0,6,0.00
2013-10-30,51.4,37.6,29.0,39.0,31.1,21.9,92,78,61,30.39,30.21,4,0,4,0.02
2013-10-31,58.2,44.3,30.4,57.6,43.0,29.1,98,95,91,30.26,29.79,10,0,10,0.15
2013-11-1,67.6,62.1,53.1,62.8,57.4,50.2,98,85,70,29.79,29.41,11,2,15,0.05
2013-11-2,68.6,53.7,43.4,50.5,44.9,41.2,93,75,42,29.75,29.60,5,0,5,0.02
2013-11-3,46.6,38.8,28.1,44.9,28.0,16.2,94,67,39,30.45,29.74,13,1,14,0.00
2013-11-4,43.3,30.9,21.9,21.3,18.2,15.2,80,61,37,30.73,30.45,7,0,7,0.00
2013-11-5,51.1,36.1,22.7,33.1,26.9,18.4,95,71,47,30.74,30.52,6,0,6,0.00
2013-11-6,61.4,49.2,38.3,47.4,41.2,32.8,88,75,54,30.52,30.03,5,1,11,0.00
2013-11-7,62.4,51.9,36.5,56.9,48.1,31.2,93,87,76,30.03,29.68,16,1,16,0.08
2013-11-8,49.2,37.4,27.8,34.2,27.3,22.2,83,67,51,30.10,29.82,13,0,14,0.00
2013-11-9,43.9,37.0,27.1,29.5,25.0,21.2,79,62,45,30.23,30.03,12,0,12,0.00
2013-11-10,55.1,43.0,37.4,45.1,35.9,29.2,95,77,62,30.03,29.74,7,0,7,0.06
2013-11-11,53.7,43.7,36.2,33.3,29.3,25.5,73,58,38,30.11,29.85,12,0,12,0.00
2013-11-12,46.4,33.4,23.7,37.6,23.8,15.4,91,68,57,30.20,29.88,16,0,17,0.04
2013-11-13,37.2,26.6,19.1,19.5,14.8,11.4,79,62,41,30.32,30.15,12,0,12,0.00
2013-11-14,54.2,38.8,26.3,30.1,22.9,16.6,72,53,34,30.16,30.04,10,0,10,0.00
2013-11-15,61.1,44.5,32.0,25.8,21.6,17.8,58,42,22,30.20,30.11,4,0,7,0.00
2013-11-16,61.1,45.2,36.1,34.1,29.4,25.9,73,55,34,30.33,30.18,6,0,6,0.00
2013-11-17,46.1,39.6,29.7,44.3,35.9,25.8,97,87,70,30.34,29.86,4,0,4,0.03
2013-11-18,67.0,55.2,45.0,59.8,46.5,31.7,99,75,45,29.86,29.52,14,1,14,0.16
2013-11-19,45.6,37.5,29.2,32.4,23.3,15.9,65,56,42,30.29,29.66,18,1,20,0.00
2013-11-20,42.2,30.9,23.3,19.9,15.8,12.8,69,54,37,30.65,30.28,15,1,20,0.00
2013-11-21,49.1,33.2,18.0,28.9,20.7,14.4,87,63,29,30.67,30.38,6,0,6,0.00
2013-11-22,42.6,40.6,37.0,41.5,38.2,28.8,98,91,72,30.38,29.82,3,0,3,0.21
2013-11-23,43.4,36.6,27.0,42.6,27.3,10.5,100,70,47,29.94,29.79,15,1,15,0.00
2013-11-24,27.7,22.5,17.8,17.5,6.5,-1.0,85,51,34,30.20,29.80,23,2,23,0.00
2013-11-25,33.7,23.5,13.0,15.5,4.2,-3.1,58,44,24,30.39,30.20,15,0,15,0.00
2013-11-26,35.5,31.9,27.4,31.3,23.5,15.0,95,72,51,30.36,30.08,6,0,6,0.16
2013-11-27,60.2,46.8,32.5,59.7,45.8,31.2,99,96,88,30.08,29.24,19,1,20,1.58
2013-11-28,35.9,28.9,18.5,33.0,17.2,7.1,89,63,38,30.45,29.44,21,1,21,0.00
2013-11-29,33.2,22.6,14.1,15.3,10.8,6.4,83,62,37,30.77,30.44,10,0,10,0.00
2013-11-30,33.9,22.1,9.9,21.4,13.6,6.2,87,70,51,30.84,30.45,5,0,5,0.00
2013-12-1,34.6,31.5,28.9,33.8,28.1,21.4,100,87,73,30.45,30.11,3,0,3,0.15
2013-12-2,36.0,35.7,35.5,35.5,35.1,34.7,98,97,97,29.97,29.95,0,0,2,0.01
2013-12-3,48.2,37.2,29.3,39.0,33.4,27.3,98,87,60,29.97,29.87,7,0,7,0.00
2013-12-4,41.6,32.8,26.4,30.5,27.1,24.9,95,81,58,30.22,29.97,13,0,13,0.00
2013-12-5,38.9,35.2,27.8,38.1,33.0,25.0,97,92,79,30.24,29.92,3,0,4,0.02
2013-12-6,47.4,41.7,32.4,46.8,38.8,31.1,98,90,65,30.19,29.86,10,0,10,0.14
2013-12-7,37.7,30.9,22.3,34.3,26.8,18.2,97,85,63,30.47,30.10,11,0,13,0.17
2013-12-8,28.7,24.7,18.8,20.9,18.2,14.5,86,76,64,30.62,30.47,5,0,5,0.00
2013-12-9,34.4,29.8,23.6,33.4,27.8,17.9,97,92,70,30.53,29.90,4,0,7,0.01
2013-12-10,33.4,28.9,20.7,31.1,26.7,14.4,97,92,76,30.01,29.80,8,0,9,0.01
2013-12-11,32.9,23.3,17.6,20.1,16.6,13.6,89,76,54,30.21,30.01,10,0,12,0.03
2013-12-12,26.1,17.3,11.0,18.1,7.5,0.4,100,68,39,30.29,30.06,12,0,13,0.01
2013-12-13,29.9,18.3,9.9,19.2,10.2,-0.4,81,71,58,30.43,30.00,13,1,15,0.01
2013-12-14,15.4,10.8,6.1,12.2,2.7,-3.4,90,70,53,30.66,30.22,10,0,10,0.00
2013-12-15,27.4,20.1,14.4,26.2,18.3,12.0,95,92,90,30.22,29.47,13,1,13,0.00
2013-12-16,28.9,20.0,10.3,19.1,12.7,4.3,93,74,50,30.23,29.75,5,0,15,0.00
2013-12-17,15.2,8.9,-1.5,13.1,4.2,-6.0,91,81,62,30.32,30.00,10,0,10,0.00
2013-12-18,35.6,23.4,12.1,23.4,18.1,9.4,90,81,57,30.08,29.91,10,0,10,0.05
2013-12-19,42.6,31.4,23.6,26.7,23.2,19.1,85,72,51,30.13,29.97,11,0,11,0.12
2013-12-20,53.7,40.0,32.5,35.6,30.7,25.1,81,70,49,30.14,29.92,6,0,6,0.29
2013-12-21,59.0,46.6,39.1,46.3,40.1,32.5,91,78,60,29.96,29.85,6,0,6,0.06
2013-12-22,48.4,36.9,31.4,47.5,35.9,30.6,97,96,91,30.06,29.81,10,0,10,0.06
2013-12-23,34.8,32.0,30.4,34.3,31.4,29.8,98,98,97,30.13,29.99,4,0,4,0.43
2013-12-24,35.7,29.8,23.1,33.9,21.9,12.3,98,73,54,30.22,30.08,11,0,11,0.00
2013-12-25,24.2,16.8,9.6,14.9,5.6,0.6,73,61,46,30.57,30.22,15,0,15,0.00
2013-12-26,24.4,20.0,15.0,22.2,15.9,7.1,94,84,69,30.53,30.12,2,0,2,0.00
2013-12-27,33.4,25.1,17.5,23.2,19.7,15.6,94,80,62,30.29,30.21,6,0,7,0.06
2013-12-28,47.4,32.8,22.9,31.1,25.4,18.8,92,75,51,30.23,29.99,8,0,10,0.03
2013-12-29,39.8,35.0,31.3,35.0,30.5,26.0,96,84,70,30.04,29.48,15,1,15,1.07
2013-12-30,41.9,30.4,13.1,36.8,23.4,4.8,97,77,51,30.20,29.53,13,1,13,0.01
2013-12-31,24.2,15.4,7.9,12.6,5.5,-1.4,85,65,47,30.20,30.05,4,0,5,0.00
2014-1-1,27.1,18.1,11.6,11.4,8.4,4.9,79,66,47,30.41,30.19,9,0,12,0.00
2014-1-2,17.2,8.6,-0.5,13.0,5.0,-3.9,89,85,77,30.39,29.93,15,1,18,0.00